Regional Weather Roundup
Issued by NWS Midland/Odessa, TX

Skip options and go directly to product.
Home | Oldest Version | Next Version | Current Version | All | Text Only | Save Text | Print | Product List | Glossary On

Skip product version selection by date and time.   
477
ASUS44 KMAF 270110
RWRMAF
MIDLAND AREA WEATHER ROUNDUP
NATIONAL WEATHER SERVICE MIDLAND TX
800 PM CDT SUN APR 26 2015

...IN SOUTHWEST TEXAS AND SOUTHEAST NEW MEXICO...

CITY           SKY/WX    TMP DP  RH WIND       PRES   REMARKS
ALPINE         CLEAR     65  27  24 W25       29.80R
ANDREWS        CLOUDY    68  29  23 W12G21    29.69S
ARTESIA        PTCLDY    64  34  32 W21G33    29.67R
BIG SPRING     CLOUDY    75  30  19 NW24G31   29.65R
CARLSBAD       PTCLDY    66  33  29 W21       29.66S
DRYDEN           N/A     79  31  17 N29G44    29.53R
FORT STOCKTON  PTCLDY    69  26  20 NW23G31   29.68R
GUAD PASS      PTCLDY    52  31  44 W29       29.78S
HOBBS          MOCLDY    64  28  25 W18G25    29.69S
MARFA          CLEAR     61  27  27 W26       29.78R
MIDLAND AIRPK  CLOUDY    72  31  22 NW10      29.65R
MIDLAND INTL   CLOUDY    71  30  21 NW16      29.64R
ODESSA         CLOUDY    69  25  19 NW17      29.67R
PECOS          MOCLDY    69  29  22 W25       29.67R
PRESIDIO       FAIR      74  31  19 NW16G32   29.67R
SEMINOLE       CLOUDY    67  28  23 SW9       29.71R
SNYDER         CLOUDY    73  44  35 N21       29.59F
WINK           CLOUDY    70  25  18 W22G30    29.64R
$$
...OTHER STATIONS IN TEXAS...

CITY           SKY/WX    TMP DP  RH WIND       PRES   REMARKS
ABILENE        PTCLDY    71  53  52 NE16      29.56S
AMARILLO       LGT RAIN  51  48  89 NE14      29.82R
AUSTIN         MOCLDY    79  73  82 SE16      29.56R
BROWNSVILLE    CLOUDY    82  77  84 SE10      29.54R HAZE
CORPUS CHRISTI CLOUDY    79  76  90 SE15G22   29.54S FOG
DALLAS FTW     CLOUDY    78  63  59 E18G35    29.53F
DEL RIO        PTCLDY    86  71  60 E15G23    29.42S
EL PASO        PTCLDY    64  33  31 W22G33    29.76F
HOUSTON INT    CLOUDY    77  72  84 SE10      29.62S
LUBBOCK        CLOUDY    65  33  30 N10       29.71R
SAN ANGELO     MOCLDY    86  35  16 S6        29.47S
SAN ANTONIO    MOCLDY    81  73  76 SE15      29.56R
WACO           CLEAR     78  67  68 SE15      29.55F
WICHITA FALLS  NOT AVBL
$$
...OTHER LOCATIONS IN NEW MEXICO...

CITY           SKY/WX    TMP DP  RH WIND       PRES   REMARKS
ALAMAGORDO     CLOUDY    55  37  50 N12       29.77R
ALBUQUERQUE    MOCLDY    50  38  63 N7        29.78R
CANNON AFB     PTCLDY    61  31  31 SE13      29.68R
CLOVIS         PTCLDY    61  28  29 SE12      29.70R
HOLLOMAN AFB   MOCLDY    56  41  57 N8        29.74R
ROSWELL        MOCLDY    64  33  31 NW12      29.66R
RUIDOSO        MOCLDY    45  30  57 W20G25    29.80R WCI  37
SANTA FE       MOCLDY    45  37  73 SW6       29.78R
TRUTH OR CONSE MOCLDY    56  34  43 W21G28    29.75R
TUCUMCARI      CLOUDY    62  35  36 NE37G44   29.69R
$$

USA.gov is the U.S. government's official web portal to all federal, state and local government web resources and services.